ELEKTRO-L 5

Last updated on Mon Sep 21 2026 00:03:03 GMT+0000 (Coordinated Universal Time)

1 67756U 26028A 26262.79233679 .00000000 00000+0 00000+0 0 9991 2 67756 0.0065 30.1749 0001650 141.1633 188.6646 1.00269938 2198
UTC large
Height (km)
Speed (km/s)
/
Latitude / Longitude
Inclination (degrees)
Orbital Period (minutes)
Azimuth
Elevation
Range (km)
Doppler Factor

Next 0 passes for location: London (51.5072 / 0.1276)

No passes found over London.
ELEKTRO-L 5